Location: Ottawa
(45.4170°N, 75.7000°W)
Time: 18:09:51
(UTC-04:00)

Iridium 91 - Visible Passes

Search period start: 21 September 2014 00:00
Search period end: 01 October 2014 00:00
Orbit: 777 x 778 km, 86.4° (Epoch: 21 September)

Date Brightness Start Highest point End Pass type
(mag) Time Alt. Az. Time Alt. Az. Time Alt. Az.
21 Sep 8.3 00:14:56 13° N 00:14:56 13° N 00:15:23 10° N visible
21 Sep 8.4 23:41:34 10° NNE 23:41:34 10° NNE 23:41:38 10° NNE visible
23 Sep 8.5 00:48:39 11° N 00:48:39 11° N 00:48:53 10° N visible
24 Sep 8.5 00:15:16 11° N 00:15:16 11° N 00:15:31 10° N visible
24 Sep 8.4 23:41:53 10° N 23:41:53 10° N 23:41:54 10° N visible
